Regional Weather Roundup
Issued by NWS

Home | Current Version | Previous Version | Text Only | Print | Product List | Glossary On
Versions: 1 2 3 4 5 6 7 8 9 10 11 12 13 14 15 16 17 18 19 20 21 22 23 24 25 26 27 28 29 30 31 32 33 34 35 36 37 38 39 40 41 42 43 44 45 46 47 48 49 50
989
ASCA42 TJSJ 291010
RWRPR
PUERTO RICO/U.S. VIRGIN ISLANDS HOURLY WEATHER ROUNDUP
NATIONAL WEATHER SERVICE SAN JUAN PR
600 AM AST FRI JUL 29 2016

PRZ001-004-291100-
PUERTO RICO

CITY           SKY/WX    TMP DP  RH WIND       PRES   REMARKS
SAN JUAN LMM   PTCLDY    79  75  89 CALM      29.99R
PONCE          PTCLDY    75  72  88 CALM      29.97S
CEIBA          PTCLDY    81  75  83 E6        30.01R
$$

PRZ006-007-291100-
U.S. VIRGIN ISLANDS

CITY           SKY/WX    TMP DP  RH WIND       PRES   REMARKS
CHRISTIANSTED  MOCLDY    79  75  89 E3        29.99R
$$

HOURLY WEATHER ROUNDUP FOR THE NEWS MEDIA

CITY           SKY/WX    TMP DP  RH WIND       PRES   REMARKS
ORLANDO        CLEAR     80  76  87 S5        30.03S
NEW YORK       LGT RAIN  72  69  90 N14       29.84S
NEWARK         LGT RAIN  71  70  96 NE16      29.83S
CHICAGO        MOCLDY    70  68  93 N3        29.91S
HARTFORD       CLOUDY    76  73  91 CALM      29.85R FOG
BOSTON         LGT RAIN  77  71  82 W8        29.85R
DALLAS         MOCLDY    79  71  76 S8        29.95F
PHILADELPHIA   LGT RAIN  74  70  87 N13G21    29.80
LOS ANGELES    PTCLDY    70  62  76 NW3       29.83S
WASHINGTON DC  CLOUDY    72  70  93 NW8       29.84R



USA.gov is the U.S. government's official web portal to all federal, state and local government web resources and services.